Theta_e
314 319 321 323 321 320 318 316 318 319 320 322 325 327 325 321 320 321 321 312 306 312 319 316 314 313 313 313 311 310 311 309 310 310 311 313 313 314 315 316 316 317 317 317 316 316 315 314 314 313 313 312 311 311 311 312 312 313 313 313 314 313 313 313 313 316 319 323 325 326 327 324 323 323 323 323 323 324 323 324 325 325 323 321 321 321
315 321 322 322 318 315 316 316 317 318 318 320 320 320 320 320 320 318 317 313 308 311 319 318 315 313 312 312 311 309 309 309 310 311 311 313 314 314 316 316 317 317 316 317 316 316 315 314 314 313 313 312 311 311 311 312 312 312 313 312 313 312 313 315 314 316 321 325 328 327 325 323 320 321 324 324 324 325 324 325 325 323 322 321 320 320
318 321 321 316 311 312 315 314 315 316 316 321 321 318 319 320 319 318 316 314 311 311 319 321 316 314 313 312 311 309 310 311 312 313 314 315 313 314 315 315 316 315 315 316 316 316 315 314 314 313 313 313 312 311 311 311 312 312 312 312 313 312 315 318 316 317 321 322 325 326 323 321 322 324 326 326 326 326 325 325 324 322 321 320 320 320
320 323 318 310 310 315 317 314 315 316 315 320 321 318 319 319 319 320 317 315 313 311 317 321 316 313 313 313 312 311 311 312 313 314 314 314 314 315 316 314 314 314 315 315 315 316 315 314 314 313 313 313 312 311 311 311 312 312 312 312 312 312 317 318 315 318 323 320 320 322 322 323 324 326 326 326 326 325 324 323 321 321 320 319 319 319
321 319 311 307 311 318 319 315 316 317 317 320 319 317 318 320 319 319 319 318 316 314 314 318 318 320 320 317 318 315 310 310 312 312 313 315 317 317 315 314 314 314 314 314 314 314 314 314 314 314 313 313 312 312 311 311 312 312 312 312 312 312 314 314 313 318 323 320 320 322 324 325 324 324 324 325 325 323 323 322 320 320 319 318 318 317
319 313 309 312 313 316 320 318 319 320 320 322 321 318 317 319 319 317 318 318 321 323 317 315 321 329 327 321 323 323 319 319 315 309 312 317 319 316 315 317 317 316 315 314 314 313 313 313 313 313 313 313 313 312 311 311 311 312 312 311 312 312 313 314 314 317 318 318 321 325 324 323 322 321 322 323 324 323 322 321 320 319 318 317 316 315
316 310 312 319 316 316 317 317 320 318 317 321 321 318 315 315 316 317 317 318 324 327 316 315 324 326 323 321 324 328 328 327 319 312 312 316 318 315 316 319 319 318 317 316 315 314 313 312 312 312 313 313 313 312 311 311 311 311 311 311 312 311 313 315 316 318 317 317 320 323 322 320 319 320 322 322 322 322 321 321 319 318 318 316 313 313
315 313 313 319 319 318 317 318 320 315 318 324 318 316 317 315 318 318 317 318 323 322 316 318 325 322 321 322 323 323 323 324 321 320 318 315 315 316 318 319 319 318 318 317 316 315 315 313 313 312 313 312 312 312 311 311 311 311 311 311 311 311 311 314 318 319 319 317 319 322 321 318 318 320 322 321 320 321 321 319 318 317 317 316 312 313
314 319 317 317 319 319 318 320 318 314 320 322 313 314 317 317 320 320 320 321 319 319 321 320 319 321 324 322 320 320 321 323 324 327 323 316 315 317 318 319 318 318 318 317 317 316 315 314 313 312 312 312 311 311 311 310 311 311 311 310 311 311 311 313 316 317 317 318 319 321 321 319 320 321 321 320 319 320 320 319 317 317 317 314 312 314
312 316 315 315 319 319 319 316 312 315 319 313 308 313 316 317 319 321 323 324 321 322 324 322 320 321 324 324 323 320 321 327 327 325 321 314 315 318 319 319 318 318 318 318 318 317 316 315 313 312 311 311 311 311 311 310 310 310 310 310 310 311 311 313 314 313 313 316 318 319 320 319 320 321 321 320 319 319 319 318 316 316 316 313 312 315
311 310 310 314 317 315 315 311 307 312 313 309 314 321 320 321 322 322 323 322 324 326 324 322 322 320 322 327 327 321 321 327 325 324 323 316 316 319 319 319 318 318 318 318 317 317 317 315 313 312 311 311 311 310 310 310 310 310 310 311 310 311 312 312 313 314 314 315 317 318 319 319 319 321 321 320 319 319 319 317 316 316 314 312 312 313
312 313 313 313 312 311 314 313 309 308 307 312 326 327 322 324 323 323 324 322 326 328 321 318 317 318 322 326 326 322 321 323 321 325 331 323 318 318 319 318 318 318 317 317 317 317 316 316 314 313 311 310 310 310 310 310 310 310 310 311 310 310 312 312 313 315 315 316 317 318 318 319 320 321 321 319 319 319 318 317 316 315 313 311 311 312
316 318 315 312 311 311 319 321 314 312 311 316 326 325 322 326 324 324 326 323 325 323 316 314 316 317 320 321 322 321 321 321 316 316 321 318 316 318 318 317 317 317 317 316 316 316 316 316 315 314 312 311 310 310 310 310 310 310 310 310 310 310 311 312 313 314 315 316 317 316 317 318 319 320 319 318 317 317 316 315 314 313 312 310 311 311
319 317 313 314 314 313 318 321 319 318 316 317 322 323 325 326 327 332 328 320 320 320 314 312 317 320 321 321 321 319 318 318 314 312 315 315 315 318 317 316 316 315 316 316 316 316 316 315 315 314 313 312 311 310 310 310 310 310 310 310 310 310 311 313 314 314 315 316 317 316 316 318 319 319 319 318 316 316 315 314 313 313 311 309 310 308
319 318 316 317 316 315 316 317 320 321 316 316 320 321 324 327 330 333 331 325 323 324 318 312 317 325 325 325 323 315 312 313 313 314 315 314 316 317 316 315 315 315 316 316 316 316 315 315 314 314 313 312 311 310 310 310 310 310 310 310 310 310 311 312 314 315 316 317 318 317 317 318 318 319 318 316 316 316 315 312 312 312 310 309 308 305
317 321 320 314 312 314 315 314 317 320 317 316 318 320 323 325 327 323 320 321 322 323 322 317 320 324 322 323 319 312 312 313 312 312 312 314 315 315 316 316 317 317 317 316 316 316 315 314 313 313 312 311 311 310 310 310 310 310 310 310 310 310 311 312 314 315 316 317 318 318 318 318 318 317 316 315 316 315 313 311 311 311 310 308 306 302
318 321 317 312 313 313 313 313 313 316 319 317 317 321 319 317 324 325 316 312 314 320 323 321 322 322 319 321 317 314 317 317 313 311 310 313 314 313 315 317 318 318 317 316 315 314 314 313 313 313 312 311 310 310 310 310 310 310 310 310 310 310 311 312 314 315 316 318 318 318 317 317 317 316 315 315 315 313 312 311 311 311 309 307 303 300
320 322 315 312 316 312 308 311 310 309 315 319 320 321 316 313 321 327 322 319 319 323 324 322 322 321 320 322 318 317 320 320 318 315 311 311 311 311 315 317 318 317 316 316 314 313 313 313 312 312 312 311 310 310 310 310 310 310 310 310 310 310 311 312 314 316 316 317 318 317 316 316 316 315 315 315 313 311 311 311 311 310 309 305 301 299
318 319 316 310 314 313 308 313 315 310 310 316 319 317 317 322 323 322 323 327 326 325 326 325 321 319 319 321 319 320 327 331 326 319 316 313 311 313 316 317 317 317 316 316 315 314 314 313 313 312 311 311 310 310 310 309 309 309 309 310 310 310 310 312 314 315 316 317 316 315 314 314 315 315 314 312 311 311 311 311 310 310 308 303 299 298
317 317 319 311 310 313 313 315 320 317 311 312 314 313 316 322 323 321 322 324 325 326 327 327 324 321 320 323 323 321 326 332 327 323 324 319 314 316 318 316 316 316 316 316 315 315 314 314 313 312 311 311 310 309 309 309 309 309 309 309 310 310 310 311 314 316 317 317 316 314 313 313 313 313 313 311 311 311 311 310 310 309 306 301 299 298
317 315 319 314 310 313 317 317 318 318 316 315 316 316 317 318 319 321 320 319 324 328 327 327 325 321 320 324 324 321 322 324 325 327 326 318 314 317 318 315 316 315 315 316 316 315 314 313 313 312 311 310 310 309 309 309 309 309 309 309 310 310 310 310 313 315 316 316 314 314 314 314 313 313 313 312 311 311 310 310 309 308 304 300 298 297
317 317 320 318 314 316 320 317 313 315 317 317 318 318 317 317 318 321 319 317 322 325 323 324 324 320 321 321 321 324 326 322 320 320 318 315 315 317 316 315 315 314 315 316 315 315 315 314 313 312 311 311 310 309 309 309 309 309 309 309 309 310 310 310 312 314 314 315 314 313 314 314 314 313 313 312 311 310 310 309 309 307 303 299 298 297
316 321 322 320 317 317 316 310 305 309 315 315 317 318 317 317 318 321 322 320 321 320 317 319 322 321 322 323 324 326 323 316 313 311 312 314 317 317 316 315 314 314 315 316 315 315 315 314 314 312 312 311 311 310 309 309 309 309 309 309 309 310 309 310 312 313 314 315 316 314 313 313 313 312 312 311 311 310 309 308 308 306 302 299 297 297
316 320 321 321 321 317 314 310 305 307 312 314 317 318 317 317 318 320 321 320 321 320 319 320 322 321 319 319 317 313 309 308 309 311 312 315 316 317 316 314 314 314 314 315 316 316 315 315 314 313 313 312 311 311 310 309 309 309 309 309 309 309 309 309 311 313 314 315 315 314 313 312 312 311 311 311 311 309 308 307 306 304 301 298 297 296
316 321 320 320 323 320 317 316 313 312 313 317 320 319 316 317 318 319 319 319 321 322 321 321 322 321 318 314 310 308 310 310 308 310 312 314 316 317 315 314 314 314 314 315 315 315 316 316 315 314 313 312 312 311 310 310 309 309 309 309 309 309 309 309 310 312 314 314 314 313 313 312 311 311 311 311 310 308 308 306 305 303 300 297 296 295
318 321 318 318 321 320 320 320 320 318 314 316 320 318 315 317 318 318 319 319 320 321 320 320 321 320 318 316 315 314 315 315 311 309 310 312 316 317 314 314 315 315 314 315 315 315 316 317 316 315 313 312 312 311 311 310 309 309 308 308 309 309 309 309 309 311 313 313 313 314 313 312 311 311 311 311 309 307 306 305 304 302 300 297 295 295
321 321 317 318 319 319 319 319 321 321 317 317 319 317 315 316 316 317 319 319 320 320 320 319 319 320 320 319 320 318 316 319 317 311 309 313 316 316 315 314 315 316 315 314 314 314 315 316 316 316 314 313 312 311 311 310 310 309 308 308 309 309 309 309 309 309 311 313 313 313 312 311 311 311 311 310 308 306 305 304 303 302 299 296 295 295
322 321 318 319 319 318 320 319 319 321 321 319 319 317 316 315 315 317 319 319 320 320 321 320 318 320 319 318 320 320 319 321 318 310 310 314 316 315 315 314 314 315 314 314 314 315 316 316 316 315 314 313 312 311 311 310 309 309 308 308 308 308 309 309 308 308 310 312 312 311 310 311 312 311 310 310 307 305 304 304 302 301 299 296 295 294
321 320 319 320 319 318 319 319 319 321 321 320 318 317 316 315 315 317 317 318 319 320 321 320 319 320 319 317 318 318 315 316 316 313 313 314 314 314 315 315 315 315 314 314 316 316 316 317 316 315 314 313 313 312 312 311 309 309 308 308 308 308 308 308 309 309 309 311 311 309 310 311 311 310 310 309 306 304 303 303 302 301 299 296 294 294
318 319 319 320 320 319 319 319 319 319 319 319 318 317 316 315 315 316 317 317 318 319 319 319 320 320 318 317 318 317 314 313 314 314 313 314 315 315 315 315 315 315 315 315 316 316 316 317 316 315 314 313 313 313 313 312 310 309 309 308 308 308 307 308 309 309 310 310 310 309 309 310 309 309 309 308 306 303 303 302 301 300 299 296 294 294
315 320 320 319 319 319 318 318 319 318 318 319 318 317 316 315 315 315 316 317 317 318 318 318 320 319 317 318 317 314 313 313 313 313 313 315 317 316 314 314 314 315 316 316 317 316 317 317 316 316 315 315 314 314 314 313 311 309 308 308 308 307 307 307 308 309 309 309 308 308 308 309 309 308 308 308 306 304 302 302 301 300 299 297 295 293
314 319 321 319 319 319 319 319 319 317 316 316 317 318 317 316 316 315 315 316 317 318 318 318 319 318 318 319 317 313 313 313 312 312 313 315 317 316 314 314 314 315 316 316 316 317 317 317 317 316 316 316 315 314 313 312 311 309 308 308 307 307 307 307 307 308 308 308 307 307 306 307 307 307 307 307 306 305 303 302 301 300 299 297 295 294
315 317 318 318 319 320 319 320 319 318 317 317 317 317 317 316 316 315 315 315 316 317 318 318 318 317 318 321 320 318 318 316 313 313 314 315 316 316 315 314 315 316 316 316 316 317 317 317 317 317 316 316 315 313 312 311 311 310 308 308 307 307 306 306 306 307 308 308 307 306 305 305 305 306 306 307 307 306 304 302 301 301 300 299 297 295
316 316 316 317 319 320 319 319 319 319 320 321 320 318 317 317 317 316 316 316 315 315 316 317 317 317 317 320 320 319 318 317 315 315 316 317 316 316 315 314 315 316 316 317 317 317 317 317 317 317 316 315 314 312 311 310 309 308 307 306 306 306 306 306 306 306 307 307 307 306 305 305 305 305 306 306 307 308 307 305 303 302 301 300 298 296
314 315 316 317 318 318 318 318 320 321 321 321 323 322 319 316 317 317 316 316 315 315 315 316 316 316 316 316 316 315 314 315 316 316 317 318 317 316 315 315 316 317 317 317 317 317 317 316 316 316 315 314 312 311 310 309 308 306 305 305 305 305 305 305 305 305 306 307 307 307 306 305 305 305 306 307 308 309 309 307 305 303 302 301 300 298
314 315 316 317 317 318 319 319 321 322 320 320 324 323 318 316 317 318 317 317 316 315 315 315 314 315 315 314 313 313 313 313 314 314 316 317 317 316 316 316 317 317 317 317 317 317 317 316 316 315 314 313 311 310 310 309 307 306 305 304 304 304 304 304 304 304 305 306 307 307 307 306 306 306 307 308 309 309 309 309 306 304 303 301 300 299
315 315 315 316 317 317 319 319 319 320 320 320 322 320 316 316 318 318 318 318 317 315 315 315 315 315 314 313 313 312 312 312 313 314 315 316 316 316 316 316 316 316 316 316 316 316 316 315 314 313 313 312 311 310 309 308 306 305 305 304 303 303 303 303 303 304 304 304 306 307 308 308 308 308 308 309 309 309 309 308 307 305 303 302 301 300
314 315 315 317 317 316 318 319 319 320 321 320 319 319 316 314 315 317 318 319 318 316 314 314 315 315 314 314 313 311 312 314 315 315 314 314 315 316 316 316 316 316 316 316 316 315 315 314 313 313 312 311 310 309 308 306 306 305 304 304 303 303 303 303 303 303 303 304 305 306 307 308 308 308 309 309 309 308 308 307 305 304 303 302 302 301
313 313 314 316 316 317 318 319 320 321 320 320 321 321 316 312 313 317 318 318 318 316 314 313 315 315 314 313 311 310 312 316 316 315 314 315 315 315 315 315 315 315 315 315 315 315 314 313 312 312 311 310 309 308 307 306 305 305 304 304 304 304 304 304 304 304 303 303 304 304 305 306 306 307 307 307 306 305 304 303 302 301 301 301 300 300
312 313 314 315 316 317 317 318 319 319 319 322 324 318 311 309 313 319 321 320 318 316 313 313 314 314 313 312 311 311 313 315 316 315 314 314 315 315 315 315 315 315 315 315 314 313 312 311 311 311 310 309 308 307 307 306 306 305 305 305 304 305 305 304 304 303 303 303 303 303 303 303 303 303 303 302 302 301 300 300 299 299 299 298 298 297
312 313 314 314 316 316 316 318 318 317 320 324 319 309 307 312 316 319 322 319 314 313 314 313 313 314 314 313 312 311 313 314 314 314 313 313 314 314 314 314 314 314 314 314 313 312 311 310 310 310 309 308 308 307 307 307 307 306 306 305 305 305 304 304 303 303 302 302 302 301 301 301 300 300 300 299 299 298 298 298 297 297 296 296 296 295
313 314 314 314 316 315 316 318 317 317 321 321 313 306 308 316 320 318 318 315 312 313 314 314 314 315 314 313 312 312 312 313 313 312 312 313 313 314 314 314 314 313 313 313 311 310 310 309 309 308 308 307 307 307 307 307 307 307 306 306 306 305 304 303 302 302 301 301 300 300 300 299 299 298 298 298 298 297 297 297 296 296 295 295 295 294
314 314 314 314 315 315 316 316 317 319 317 313 310 310 312 316 318 314 312 312 312 311 313 314 314 315 314 312 312 313 312 312 311 311 311 312 312 313 313 313 313 313 313 312 310 309 309 309 308 308 308 308 307 307 307 307 307 306 306 306 305 304 303 303 302 301 301 300 300 300 299 299 298 298 298 298 297 297 297 296 296 296 295 295 295 294
313 315 316 315 315 315 316 316 318 319 315 310 311 315 314 313 312 310 311 312 310 310 312 313 314 314 313 312 312 312 312 311 311 311 311 311 311 312 312 312 312 312 311 310 309 309 308 309 308 308 308 308 308 307 307 307 306 306 306 305 304 303 303 303 302 301 301 301 300 300 299 298 298 298 298 298 297 297 297 296 296 296 296 295 295 295
314 313 312 313 315 316 315 314 313 311 308 308 311 312 312 312 312 310 309 309 309 309 310 311 312 313 312 312 312 311 311 311 310 310 310 311 311 311 312 312 312 311 310 309 308 308 308 308 308 308 308 308 307 307 306 306 305 305 305 304 304 304 303 302 302 302 301 300 300 299 299 298 298 297 297 297 297 297 297 296 296 296 296 295 295 295
311 308 307 310 315 315 313 311 309 307 305 306 310 310 310 310 311 310 308 307 307 308 308 309 310 310 310 310 310 310 311 311 310 309 310 310 310 311 311 311 310 308 308 308 308 308 308 308 308 308 308 307 306 306 305 305 304 304 304 304 303 303 302 302 301 300 300 299 298 298 297 297 296 296 296 296 296 296 295 295 295 294 294 294 294 294
310 307 307 311 314 315 314 313 312 309 306 306 308 309 308 308 308 308 309 308 307 307 308 309 309 309 309 309 309 309 310 310 309 309 309 310 310 310 309 308 308 307 308 309 309 309 309 309 308 308 307 306 305 304 304 304 303 302 302 302 302 301 300 300 299 298 297 296 296 296 295 295 295 295 295 294 294 293 293 293 292 292 292 292 292 291
311 308 308 311 311 312 314 313 308 305 304 306 307 307 308 308 308 308 309 309 307 307 308 309 308 308 309 309 308 309 309 309 309 309 309 309 309 309 308 307 307 308 309 309 309 309 309 308 307 307 306 305 304 303 303 302 301 300 300 299 299 298 297 296 296 295 295 294 294 294 294 293 293 293 293 292 292 291 291 291 291 291 290 290 290 290
310 309 309 311 311 310 312 311 307 304 307 308 307 308 309 310 310 309 309 309 309 308 308 308 309 309 309 309 308 308 308 308 309 308 309 309 308 307 307 308 308 308 308 307 307 307 307 306 306 305 304 303 302 300 299 298 297 297 297 296 295 295 295 294 294 294 294 293 293 293 292 292 292 291 291 291 291 290 290 290 290 290 290 290 290 290
308 311 311 310 310 310 311 311 309 309 311 311 309 310 311 311 311 310 309 309 309 309 309 309 310 310 310 309 308 308 308 308 308 308 308 308 307 307 308 308 307 307 306 306 306 305 304 303 302 300 299 298 297 296 296 295 295 295 294 294 294 294 293 293 293 293 293 292 292 292 291 291 291 291 291 290 290 290 290 290 290 290 290 290 290 290
307 310 310 310 310 310 310 309 308 308 310 310 310 311 311 311 311 311 310 309 309 309 310 310 310 310 310 309 308 308 309 309 308 308 308 308 307 307 307 307 306 306 305 304 303 301 299 298 297 296 296 295 295 295 295 294 294 294 294 293 293 293 293 293 293 293 292 292 292 292 291 291 291 291 291 291 291 291 291 291 291 291 290 290 290 290
Wind_Speed
4 3 2 5 7 8 8 8 6 5 7 6 6 4 4 4 4 5 4 4 1 3 6 9 8 10 12 11 18 23 16 16 24 28 31 34 34 35 35 37 37 36 35 32 29 28 27 28 28 27 27 26 25 27 27 27 26 25 24 22 21 19 19 17 16 18 19 18 20 24 23 18 17 20 21 22 22 21 21 20 19 17 14 13 12 13
4 4 7 10 7 5 6 6 6 5 5 5 5 3 2 3 5 6 3 4 0 3 5 6 7 11 12 11 19 22 12 15 26 28 32 36 35 36 37 39 40 37 36 34 33 32 30 30 30 30 30 29 28 29 30 29 27 26 24 23 21 20 19 17 16 18 18 19 24 24 19 17 19 20 20 22 23 20 20 19 18 16 13 12 12 14
3 3 11 9 5 7 4 5 6 5 4 4 3 2 3 3 4 5 3 4 1 3 5 5 7 11 11 10 17 23 19 23 31 32 35 37 32 35 38 39 38 36 35 35 34 34 33 32 32 32 32 31 30 30 30 29 27 27 25 23 23 20 20 20 18 20 20 22 27 24 19 20 22 22 22 23 22 19 18 18 17 15 14 13 13 15
2 6 10 6 9 8 5 5 7 5 2 2 3 3 3 2 2 3 4 4 0 2 3 5 7 9 9 8 13 24 26 26 33 35 37 38 36 40 41 37 35 34 35 35 34 34 34 33 33 33 34 33 32 31 31 30 29 28 26 24 24 22 23 24 22 22 23 23 25 26 24 22 21 22 24 24 21 19 18 17 17 16 15 14 15 15
5 5 2 4 8 7 6 4 6 4 3 4 5 6 4 4 5 5 3 4 2 2 3 4 7 7 6 7 9 13 13 18 28 31 33 37 39 42 42 38 37 37 37 36 34 33 33 33 34 34 35 35 34 32 32 32 30 29 27 24 24 23 24 24 23 25 27 24 24 26 26 23 21 21 23 23 22 20 18 18 18 17 15 14 15 15
7 4 4 6 4 6 7 4 5 7 3 4 5 9 9 7 7 5 3 5 4 3 3 4 5 6 2 4 8 5 4 9 16 16 22 33 34 33 34 35 35 35 34 33 32 32 31 31 32 34 35 36 35 34 33 32 30 28 26 24 23 23 24 24 23 25 26 25 26 27 25 24 24 23 23 23 22 20 19 19 20 17 15 14 15 16
4 2 4 6 5 6 6 3 6 7 4 2 4 7 9 6 5 5 1 1 1 4 3 4 2 7 4 4 8 6 5 10 10 9 19 31 30 27 29 30 30 29 29 29 28 28 28 28 29 32 34 35 36 35 33 33 30 28 26 24 24 24 25 25 24 25 26 25 27 27 24 23 25 25 24 22 20 18 19 22 21 19 16 14 15 18
4 3 4 5 6 5 5 3 6 8 7 3 4 4 6 6 6 5 4 3 3 3 3 3 2 5 8 6 6 5 6 10 11 12 19 25 25 24 25 26 24 24 24 23 24 25 25 25 27 29 31 34 35 35 34 33 31 29 27 25 24 24 25 27 28 28 29 27 28 29 26 22 22 23 23 21 19 18 20 24 23 20 17 15 16 21
3 6 5 7 5 4 5 4 6 11 5 4 3 5 6 6 5 4 5 2 2 3 4 2 3 3 8 5 3 2 5 8 11 14 16 18 20 19 18 17 16 15 16 17 18 19 20 21 22 24 28 31 34 35 34 33 30 29 27 26 25 24 24 27 30 31 31 29 28 29 27 25 23 23 23 21 19 19 23 25 22 20 17 16 20 22
1 4 7 8 5 5 4 2 5 9 4 4 6 6 6 5 5 5 4 3 3 2 5 5 6 4 7 4 2 1 3 6 10 12 12 16 19 16 13 12 11 11 11 11 12 12 14 15 16 20 24 29 33 34 33 32 30 29 28 27 25 25 25 26 29 29 30 30 30 29 28 28 26 25 25 23 20 22 26 25 22 20 17 18 24 24
1 2 3 4 4 5 6 4 1 3 6 9 7 6 6 5 4 3 2 4 2 5 5 6 9 6 5 3 4 3 4 6 8 8 9 13 16 14 11 11 10 9 9 7 7 8 10 12 14 18 23 27 31 33 33 33 31 30 29 28 26 25 25 26 27 28 29 31 30 29 29 27 26 27 27 24 22 25 28 25 22 20 18 20 27 27
2 2 2 3 5 7 8 5 5 5 6 7 4 4 4 3 4 4 4 3 0 5 3 2 4 5 7 6 3 4 6 6 7 7 8 9 12 12 9 9 9 8 8 8 8 9 11 13 15 19 23 27 31 33 33 33 33 31 30 29 27 27 27 27 28 28 29 30 30 29 28 25 25 27 26 23 22 26 26 24 23 22 22 23 27 28
2 4 2 2 5 8 7 5 4 4 1 3 4 6 4 2 2 3 3 1 2 6 3 1 1 4 9 8 7 9 12 10 10 12 14 14 17 18 13 11 12 12 13 14 15 15 16 17 18 20 23 27 31 33 33 34 34 33 31 30 29 28 28 29 30 30 29 29 28 28 27 25 25 26 25 22 22 24 23 23 24 24 24 28 30 29
3 4 1 3 3 9 9 6 3 1 3 5 5 6 4 2 1 2 3 2 4 6 3 1 0 3 5 5 10 16 17 16 15 20 24 23 25 28 24 20 20 20 21 22 21 21 21 20 20 20 23 26 30 31 32 34 35 34 32 32 30 29 29 30 32 32 31 30 29 28 26 25 25 26 26 24 22 23 22 22 23 22 26 32 32 31
5 5 5 6 3 11 13 7 6 5 5 6 3 5 5 5 5 4 4 4 5 4 3 2 1 3 3 3 8 12 14 16 19 24 27 27 30 33 33 31 28 26 24 23 23 22 21 20 20 20 22 25 28 30 32 34 35 35 34 33 32 31 30 31 33 33 33 32 31 30 28 25 26 28 28 24 22 22 22 22 22 23 28 33 32 32
3 6 6 2 1 11 11 4 6 7 3 3 3 4 3 5 5 2 3 5 2 3 3 2 4 5 4 6 9 10 11 13 17 19 19 25 30 30 32 32 29 27 25 24 24 22 20 20 20 20 22 25 27 29 31 34 35 36 35 34 33 31 30 31 34 34 33 33 32 32 29 26 28 31 29 25 24 23 22 21 21 25 31 34 33 34
2 4 5 3 1 5 4 2 4 4 3 2 3 4 4 4 6 3 2 1 3 3 4 2 5 5 4 8 9 8 11 12 11 11 15 22 23 21 26 30 29 28 27 25 24 21 20 19 20 21 22 25 27 28 30 32 34 35 35 34 32 32 32 32 33 33 32 32 31 32 30 28 31 33 29 26 26 25 22 21 22 27 33 35 34 35
4 3 4 2 1 3 1 3 4 3 4 5 4 6 3 2 3 3 2 2 3 3 4 1 5 6 4 6 4 1 6 11 10 10 15 20 19 19 27 29 26 24 22 20 20 19 19 19 19 20 22 24 26 27 28 30 32 35 35 34 33 33 32 33 34 33 32 31 30 30 30 31 33 33 29 27 27 25 23 23 25 30 35 36 36 36
4 2 4 2 2 3 3 3 2 4 3 4 4 5 4 2 2 2 2 2 1 3 4 3 4 5 6 7 4 3 6 9 10 9 9 13 16 20 23 20 15 15 14 13 14 15 16 17 18 19 21 23 25 27 27 28 31 35 35 34 33 32 31 32 34 34 34 34 31 29 30 31 33 32 29 29 27 25 24 25 28 32 35 37 37 36
3 3 3 1 2 1 3 2 5 1 2 3 2 3 2 2 4 3 3 3 3 2 3 3 5 7 8 7 6 9 11 10 8 6 6 11 15 15 12 11 9 9 8 8 8 10 12 13 14 17 19 21 23 25 27 29 32 35 36 36 35 33 32 33 34 34 35 34 32 30 31 32 33 32 31 30 28 25 25 27 30 33 36 38 37 36
3 3 3 2 3 0 3 5 8 9 6 3 3 5 3 1 2 1 1 2 3 3 2 2 6 12 8 5 8 11 12 10 9 8 8 12 14 10 8 8 7 5 4 4 5 6 8 10 11 14 16 19 22 24 27 29 31 34 37 37 35 34 33 34 35 34 34 33 32 32 33 35 35 34 32 30 28 26 26 29 32 34 37 38 38 36
3 3 3 2 1 4 6 4 5 8 8 7 7 8 8 6 4 2 2 1 2 3 3 3 7 14 7 5 7 8 8 9 12 11 10 14 16 10 7 8 7 6 5 4 4 4 5 8 9 12 15 18 21 25 27 29 31 34 37 37 36 35 34 35 36 36 35 35 35 33 34 36 36 33 31 30 28 27 28 30 33 35 38 39 38 36
5 3 3 3 4 5 5 2 1 3 3 3 2 3 5 4 4 5 4 4 2 2 1 4 4 13 5 7 7 7 7 9 12 12 11 16 18 12 9 10 9 8 7 5 4 2 3 5 8 11 14 17 21 24 27 29 32 34 36 37 36 35 35 35 36 36 35 36 36 35 34 35 35 33 31 30 28 27 30 33 34 36 38 39 38 37
4 2 3 3 2 2 3 2 2 2 2 2 1 2 5 6 7 5 3 4 4 3 3 3 5 13 5 3 5 5 5 7 10 14 17 18 16 13 12 12 11 11 8 5 4 2 1 4 7 10 13 16 20 23 26 29 31 33 35 36 36 36 35 35 36 36 36 35 35 34 34 34 34 33 32 30 28 28 31 34 35 37 39 40 39 37
8 3 5 3 2 2 2 2 1 1 1 3 3 4 6 9 7 3 1 2 2 8 10 6 8 13 4 1 4 4 4 7 9 14 18 18 16 15 14 12 13 13 10 7 6 4 1 5 7 9 12 15 18 21 25 28 31 34 35 36 36 36 35 35 36 37 37 37 37 37 36 34 34 32 31 30 29 29 33 36 37 39 41 41 40 38
9 4 7 7 6 8 7 6 5 3 3 2 3 6 8 11 12 7 4 3 5 11 11 7 12 15 3 2 4 5 3 6 10 13 15 17 18 18 15 13 14 13 11 10 8 5 3 6 8 10 11 13 16 19 23 27 30 33 36 37 36 35 35 36 36 38 39 39 39 38 36 34 33 32 31 30 29 31 34 37 38 39 41 41 40 38
4 2 9 12 12 13 13 11 5 7 7 6 10 13 13 14 14 10 5 6 11 12 8 12 20 21 13 8 6 5 6 7 9 10 14 20 23 22 18 14 13 12 13 12 10 7 6 8 10 12 12 13 14 17 21 24 28 32 35 37 37 36 35 35 36 37 39 39 38 37 36 35 34 32 31 30 30 32 35 38 38 40 41 41 40 38
2 3 10 13 16 16 17 16 9 10 11 14 16 17 16 16 16 13 12 16 16 11 11 18 19 18 22 20 13 9 9 8 7 11 18 23 25 22 19 18 17 15 15 14 11 9 9 12 14 14 13 13 13 15 19 22 26 30 33 36 37 37 36 35 36 37 39 39 38 37 37 36 34 32 30 29 30 32 35 37 38 39 40 40 39 38
3 6 10 11 16 18 19 17 12 12 13 14 16 18 18 18 18 18 21 25 21 13 14 19 18 17 22 26 20 13 10 11 15 19 21 21 21 20 20 23 22 19 17 15 13 13 13 16 17 16 14 13 13 14 17 21 25 29 32 35 37 38 37 35 35 37 38 39 38 38 38 36 35 32 29 29 30 32 35 37 38 38 40 40 39 39
4 7 11 13 16 18 20 20 14 14 13 10 12 15 17 20 22 25 27 28 24 17 16 21 24 22 22 24 20 14 18 23 23 21 18 18 22 25 25 27 25 21 19 17 16 16 17 19 19 17 15 14 14 15 16 20 24 27 31 35 37 38 38 36 36 36 38 39 38 38 38 36 35 33 30 29 31 32 34 36 37 38 39 40 40 39
6 7 9 10 10 13 17 19 17 14 13 12 10 10 13 20 24 27 26 21 18 18 22 25 25 24 21 17 12 12 23 25 18 15 18 23 27 29 28 29 27 24 24 22 20 20 21 22 21 18 17 17 17 17 18 20 24 26 29 33 36 38 37 37 36 36 38 39 38 39 39 37 37 35 32 30 30 32 33 35 37 38 39 40 40 40
6 5 3 3 6 10 12 17 18 13 8 9 10 10 17 21 21 20 18 17 19 21 23 21 19 21 17 7 6 11 18 17 14 18 24 29 33 34 32 32 31 30 30 28 25 25 25 24 22 21 20 20 20 20 19 20 24 26 28 32 34 36 36 36 36 36 37 38 38 38 39 39 39 37 33 31 30 31 32 34 35 37 38 39 40 40
5 5 4 5 7 10 13 16 16 9 5 7 11 19 25 22 16 13 14 21 24 20 17 15 16 23 18 5 7 9 10 12 16 24 29 34 38 39 39 38 36 35 35 34 32 30 27 24 23 23 24 24 22 21 19 20 23 24 26 29 32 34 36 36 36 36 37 37 37 37 36 38 40 38 34 31 30 30 31 32 33 35 37 39 40 41
8 9 8 6 5 8 13 13 9 7 10 11 13 20 25 22 19 19 20 25 24 17 15 15 17 24 19 7 7 9 11 18 26 33 38 40 39 40 40 40 39 38 39 40 36 31 26 23 24 25 26 25 22 19 18 20 22 21 23 27 30 33 34 35 35 36 37 38 37 36 34 34 37 37 35 32 30 30 30 31 32 34 35 38 40 42
9 10 8 6 4 5 8 8 7 9 11 9 7 10 15 19 22 23 23 24 21 17 18 20 23 28 22 12 12 15 20 27 32 36 41 43 41 39 37 37 39 39 40 40 34 28 25 25 26 26 25 23 21 19 20 21 22 22 24 26 29 31 33 34 34 35 36 38 38 36 33 32 33 35 34 32 30 29 29 31 32 33 34 36 38 41
9 8 6 5 5 3 4 7 10 8 4 4 6 6 6 7 9 12 16 20 21 21 20 22 29 32 24 19 20 19 19 21 24 33 42 43 40 38 37 39 41 38 36 34 30 27 26 26 25 24 22 21 20 20 21 22 22 23 23 24 26 28 29 31 32 33 34 36 37 37 35 33 32 33 33 31 30 30 30 31 32 32 33 33 34 36
9 8 5 5 6 5 7 9 9 8 7 7 12 10 6 7 9 10 12 18 20 22 22 23 28 28 21 21 24 19 13 11 16 31 43 42 38 40 41 42 39 33 29 27 25 26 25 24 24 23 22 22 21 21 21 21 21 21 21 22 23 24 26 28 29 30 32 33 35 35 35 34 33 33 32 32 31 31 30 30 29 29 30 30 30 32
11 10 8 7 6 7 9 9 8 9 10 13 17 12 7 11 12 9 8 14 17 20 23 22 24 22 16 17 20 16 10 8 11 24 35 37 40 44 43 39 35 29 26 25 24 26 26 25 25 24 23 23 21 20 19 20 21 21 21 21 21 22 24 26 27 28 29 30 32 33 33 33 33 32 31 31 30 29 27 26 25 25 26 27 28 28
14 11 10 9 6 7 9 9 9 9 9 11 14 9 7 15 13 9 3 12 16 18 19 16 15 17 17 20 20 15 9 9 13 21 28 29 32 36 37 36 35 30 27 26 26 27 27 26 25 23 22 22 21 20 20 20 20 20 20 20 21 22 23 25 25 26 27 27 28 28 28 28 28 28 28 27 25 24 22 21 20 21 22 23 24 25
13 9 9 9 9 9 10 9 8 7 7 8 7 5 8 18 19 11 5 12 10 10 15 16 15 19 26 30 23 13 9 15 18 20 21 20 21 24 26 30 32 30 27 27 28 27 26 25 25 24 23 22 21 21 21 21 20 20 20 20 21 22 22 22 21 21 21 21 21 22 22 23 23 23 22 21 19 18 17 17 18 19 20 20 21 22
8 7 8 9 11 12 13 11 7 4 5 6 5 7 14 18 14 7 11 9 5 9 19 25 26 31 36 34 22 15 23 36 33 22 14 12 15 18 18 21 25 27 27 27 28 27 25 25 25 24 22 22 22 22 22 21 21 20 20 20 20 19 18 16 16 17 17 18 19 19 19 19 19 18 17 16 15 15 16 16 17 17 17 17 18 19
5 5 6 8 10 10 11 11 8 6 7 7 8 13 16 12 6 10 8 5 8 12 19 27 32 35 37 33 27 29 37 42 37 26 17 12 13 14 15 18 21 24 27 27 26 26 27 28 26 24 24 23 22 22 21 21 20 19 19 19 18 16 15 16 16 17 17 18 18 18 17 17 16 16 15 15 15 16 16 16 16 16 17 17 18 19
6 5 5 7 7 7 8 9 8 7 6 12 15 9 7 8 6 6 6 7 9 11 16 24 30 31 30 27 28 33 34 31 29 28 24 18 15 14 15 17 19 23 26 27 28 29 30 29 27 26 24 23 22 21 20 20 19 18 17 16 15 16 17 17 17 17 17 17 16 16 17 16 16 16 16 16 16 16 16 17 17 17 18 18 18 19
6 6 5 6 7 7 7 8 7 4 6 21 20 6 12 19 9 1 4 9 9 9 13 20 25 27 26 24 23 25 28 28 27 26 23 21 19 18 18 18 20 24 26 27 30 31 30 29 28 26 23 22 21 20 18 18 17 17 16 16 17 18 18 18 18 17 17 17 16 17 17 16 16 16 15 16 16 16 16 17 17 17 17 17 17 18
7 6 3 4 6 6 6 6 4 1 8 25 23 9 12 24 20 8 4 6 8 10 12 13 15 17 18 20 21 21 23 26 26 24 23 23 22 21 21 21 23 25 27 29 31 31 29 27 26 24 22 20 19 18 17 17 16 16 18 18 18 19 18 18 18 17 16 16 16 16 16 16 15 15 15 15 15 15 15 15 15 15 15 15 15 16
5 3 2 1 3 4 4 4 5 2 6 20 27 18 12 17 21 18 12 8 7 8 9 8 8 9 11 14 17 18 20 22 24 24 23 22 23 23 24 23 24 26 29 31 31 29 28 26 23 22 22 20 19 18 18 18 17 17 18 19 19 19 18 18 17 16 16 16 16 16 16 15 15 15 15 14 14 14 13 13 13 13 13 13 13 13
4 5 4 1 2 5 5 4 6 6 7 14 24 25 20 16 16 17 18 14 8 7 7 7 8 10 11 12 14 16 18 19 22 23 23 23 25 25 24 24 27 29 30 29 28 27 26 25 23 22 21 21 22 21 21 21 20 19 19 20 20 19 19 18 17 17 17 17 17 17 16 16 15 15 15 14 14 13 13 13 13 13 12 12 11 11
6 8 6 3 4 5 5 6 4 4 7 11 17 22 24 23 18 16 18 20 17 13 10 8 7 9 10 12 14 16 16 17 21 23 24 25 24 24 25 27 29 30 28 26 26 25 25 24 23 23 23 23 23 23 22 22 22 22 21 20 19 20 19 19 19 19 19 19 18 18 17 17 16 15 15 14 14 13 12 12 12 11 10 9 9 10
6 7 5 5 5 4 7 10 6 5 9 14 19 22 25 26 24 21 20 21 24 25 20 12 9 10 13 14 14 15 16 17 20 22 23 24 23 25 27 28 27 26 24 24 24 24 24 24 24 24 24 24 24 24 23 22 22 22 21 20 20 20 21 21 21 20 20 20 19 18 18 17 16 15 15 14 13 12 12 11 11 10 9 9 10 10
6 5 5 4 4 5 8 10 8 4 7 13 21 24 25 25 27 29 27 24 23 24 20 15 13 14 16 17 16 15 15 17 19 20 21 22 23 26 28 26 24 24 24 25 25 25 24 24 24 24 24 24 24 23 23 22 22 21 21 20 20 21 20 20 20 20 19 19 18 18 17 16 16 15 14 13 12 12 11 11 10 10 9 9 10 9
7 6 7 6 6 8 11 12 12 12 11 16 21 23 24 25 28 31 34 32 25 19 16 16 17 18 18 19 19 18 16 17 19 20 20 22 24 26 26 25 25 26 26 26 27 27 25 24 24 24 24 24 24 23 23 22 22 21 21 21 20 20 19 18 18 18 18 17 17 16 16 15 14 14 13 12 12 11 11 11 11 11 10 10 10 11
Wind_Direction
110 103 136 212 220 210 200 183 169 149 124 123 131 135 170 195 266 253 255 289 196 181 249 236 238 256 260 266 271 271 268 259 263 266 265 265 263 261 260 260 259 259 261 261 257 254 250 248 247 246 245 243 239 236 235 233 233 233 231 232 230 223 222 218 211 203 201 206 204 202 204 205 211 214 218 219 215 217 226 231 227 218 222 233 230 224
101 133 219 226 214 191 182 157 127 112 97 97 128 162 222 205 253 253 252 309 225 183 265 267 261 262 255 260 270 271 264 250 254 258 261 263 263 263 262 262 261 260 260 260 258 256 251 247 245 243 243 241 237 235 234 233 233 232 229 228 226 220 216 213 207 201 202 202 196 197 208 218 217 217 223 219 211 218 226 218 210 206 210 221 226 223
75 213 240 226 135 96 96 118 119 116 98 86 122 156 250 238 270 280 301 336 10 189 268 299 285 268 256 254 263 262 253 252 255 254 258 263 263 264 263 264 263 261 260 259 258 256 253 248 244 242 242 241 238 235 235 234 232 232 228 223 221 215 208 209 208 203 204 204 202 207 217 223 223 217 213 209 209 216 213 203 201 201 200 210 223 220
145 246 256 208 145 112 71 88 104 103 115 145 154 169 240 240 266 282 298 320 324 185 281 304 287 272 259 248 254 256 253 257 261 259 260 262 262 264 264 264 265 264 263 261 258 255 253 248 244 242 242 241 238 235 234 232 230 230 227 223 219 210 203 207 209 205 206 207 206 210 212 215 218 212 205 203 206 207 203 201 202 199 194 201 216 213
220 256 285 136 150 134 104 113 127 138 234 243 198 196 218 221 219 232 286 318 324 8 6 332 293 275 252 242 250 262 262 262 262 260 261 261 261 262 263 264 264 265 265 264 261 257 253 250 247 245 243 241 239 236 235 233 231 229 227 223 219 211 206 208 207 203 205 206 206 204 201 201 204 205 206 207 208 207 206 204 199 196 191 198 214 205
251 244 120 106 110 121 124 155 178 170 205 281 232 207 215 218 223 240 337 2 353 327 339 14 317 285 266 240 252 283 309 268 261 258 258 261 262 261 262 266 267 267 267 266 264 261 257 252 248 245 242 241 241 239 235 234 231 229 227 221 216 213 210 210 207 205 206 207 206 203 199 204 209 210 212 214 215 212 207 202 198 193 190 207 220 198
236 191 116 118 122 126 134 200 223 177 143 300 253 207 208 199 201 232 249 48 280 261 280 49 10 280 277 220 238 259 264 266 272 272 263 263 265 263 265 270 272 272 271 267 266 263 259 253 246 243 243 242 242 239 234 231 229 226 225 221 217 214 210 209 209 208 207 205 207 211 214 219 219 213 212 214 213 209 204 199 192 185 193 217 215 189
170 136 84 112 121 121 143 219 225 162 134 246 250 158 160 164 184 202 164 180 239 276 310 38 111 275 280 243 244 249 248 272 281 276 269 264 265 267 270 274 276 276 275 271 267 264 260 255 249 245 244 242 241 238 232 229 227 224 223 221 218 215 209 206 207 208 209 206 209 215 215 215 218 215 214 212 206 204 200 192 182 182 203 216 199 187
153 163 177 157 137 151 183 226 190 153 145 249 213 120 136 151 158 137 122 171 321 358 304 296 129 264 275 256 309 320 238 260 265 260 264 266 269 273 274 276 280 278 274 269 265 263 261 257 253 249 245 243 241 238 233 230 227 222 222 221 218 216 210 206 208 209 209 208 212 214 209 209 215 215 214 211 208 204 197 189 181 186 209 212 193 186
104 180 190 159 150 194 199 287 188 167 176 183 137 98 84 79 81 85 102 114 45 323 254 210 165 237 275 233 132 48 221 237 250 252 259 270 275 275 269 269 275 273 267 264 260 259 258 256 252 247 243 241 241 239 234 228 225 221 220 220 218 216 212 208 209 208 206 207 210 213 212 212 213 212 211 210 208 201 194 189 186 194 215 213 195 187
346 110 171 163 168 173 133 65 49 131 138 138 119 74 62 41 43 54 46 81 53 285 262 206 187 203 271 260 178 192 219 219 232 252 268 275 270 260 256 262 267 265 259 254 250 248 246 245 241 238 238 237 239 238 231 224 221 219 219 218 217 216 213 209 206 204 204 205 208 211 211 211 212 212 210 207 205 199 193 191 194 205 220 209 196 192
334 131 197 192 164 131 105 69 38 67 119 124 94 88 85 356 10 26 355 47 126 256 272 262 217 208 242 255 228 243 263 240 221 239 262 271 258 242 240 257 263 260 258 255 255 253 248 246 241 235 234 232 233 234 229 222 219 218 217 216 215 215 212 206 203 203 204 203 204 206 206 209 215 214 208 205 204 199 196 201 209 219 221 202 191 191
259 218 230 144 167 159 123 78 47 24 37 110 99 114 104 336 348 346 312 65 233 251 269 334 305 238 243 250 252 260 266 250 224 232 246 256 259 256 252 254 258 259 264 268 268 267 261 258 254 245 237 231 230 231 228 222 218 217 216 214 215 215 210 204 200 201 204 203 201 202 205 212 216 213 207 203 205 205 209 217 223 228 216 193 184 186
262 295 187 134 209 195 170 151 155 218 202 172 149 142 142 135 160 278 277 261 268 267 285 339 210 248 266 260 237 239 248 248 240 245 252 257 265 271 272 267 265 265 268 270 268 267 265 263 259 251 242 234 232 231 227 222 219 218 215 213 215 214 209 204 200 199 202 204 204 204 210 215 212 208 203 201 206 213 223 230 231 229 208 188 184 184
219 286 202 174 192 187 188 192 167 138 159 186 159 140 158 156 168 212 217 225 261 284 293 304 223 207 220 254 232 233 254 259 250 248 254 259 263 270 275 274 273 272 272 271 269 267 265 262 256 250 244 237 234 231 227 222 219 218 216 214 214 213 208 203 200 200 201 206 208 207 211 215 210 202 197 198 209 221 231 233 229 222 202 189 186 185
199 269 239 233 148 170 184 194 128 110 139 209 123 120 190 184 160 177 199 184 192 314 299 242 228 220 215 264 261 250 264 263 251 250 255 258 258 262 268 271 273 274 273 270 268 267 262 256 250 246 242 237 233 231 228 224 219 217 216 215 215 213 210 204 201 201 201 207 212 207 208 212 203 196 195 203 217 227 232 230 223 212 198 190 190 188
164 280 290 347 11 173 184 181 125 134 180 166 134 179 216 174 128 118 228 76 68 281 274 210 249 288 306 277 262 243 252 257 258 261 255 254 257 259 262 265 270 274 276 273 268 265 261 254 249 246 242 237 232 230 229 225 220 218 217 217 215 213 210 205 203 203 202 206 208 201 203 207 198 194 202 214 223 228 229 224 215 205 196 192 192 190
163 258 303 53 216 253 333 89 73 55 118 125 180 204 179 113 92 107 204 4 43 252 271 247 254 284 293 275 286 148 237 253 256 254 254 259 262 259 258 262 269 274 276 273 266 260 257 253 249 246 243 238 234 231 231 227 222 219 218 219 218 214 211 206 204 205 204 205 203 198 201 204 199 199 212 223 226 228 228 220 208 201 197 194 194 194
153 229 298 53 207 282 19 116 108 16 70 124 185 180 131 143 189 127 164 203 190 240 276 295 283 267 224 231 244 182 212 239 248 246 252 257 250 248 256 259 261 265 266 263 259 255 254 254 251 247 242 239 234 231 231 229 223 219 218 219 219 217 214 208 205 207 207 206 205 205 206 206 205 209 219 225 225 228 229 217 204 199 197 196 196 197
148 206 273 336 243 304 33 175 187 194 34 49 84 146 126 149 175 168 158 173 181 214 273 314 313 268 228 202 191 198 207 211 218 228 236 239 234 233 246 250 245 251 255 253 249 248 250 252 252 248 243 239 235 231 229 227 224 220 218 219 218 216 214 210 208 209 208 206 206 209 209 208 210 215 221 225 228 232 228 213 202 200 198 197 199 200
113 208 243 302 315 192 186 212 191 179 168 145 161 180 197 158 125 178 139 114 135 150 217 281 283 267 243 176 178 198 207 200 194 208 223 232 236 225 216 230 238 228 214 216 225 234 241 245 246 244 241 237 233 231 229 227 225 222 220 220 218 215 214 210 209 208 207 207 208 210 210 210 211 215 222 228 233 234 224 209 202 201 200 200 202 203
165 195 188 177 240 212 222 240 206 193 184 180 191 194 192 174 133 155 232 256 134 153 191 178 264 273 249 164 188 197 198 199 198 212 222 225 231 229 216 222 219 191 168 160 184 215 234 238 240 240 237 234 231 228 228 227 226 223 222 221 219 216 215 212 209 208 209 211 211 211 213 212 212 217 226 232 234 231 221 208 203 203 202 203 205 206
162 122 141 188 216 218 240 277 216 217 183 162 195 194 180 157 141 165 205 226 174 195 213 111 265 274 243 160 189 193 199 209 201 207 224 230 227 219 216 219 207 190 174 160 168 190 238 243 239 238 236 234 232 229 228 227 227 225 224 222 221 218 216 213 211 210 212 214 211 210 214 215 217 224 230 232 233 229 218 207 203 204 204 205 207 208
134 121 184 233 292 319 329 351 30 32 86 134 243 170 167 188 191 181 191 190 158 191 197 118 248 264 258 167 209 218 235 237 213 210 221 232 230 217 215 212 200 199 191 177 178 163 249 270 253 245 241 236 232 230 229 228 228 227 226 224 222 221 218 215 212 211 212 213 211 212 216 219 222 227 230 230 231 227 217 207 204 206 206 207 210 211
162 187 193 195 295 312 317 297 297 343 162 197 222 188 184 195 182 129 90 166 173 211 198 176 243 254 270 7 255 246 254 250 233 221 220 224 222 219 221 207 197 205 201 190 192 178 238 288 275 261 252 242 237 233 230 230 229 228 228 226 224 222 220 217 213 212 212 213 214 216 218 221 224 227 228 229 228 224 215 208 206 208 209 210 212 212
169 189 181 183 224 230 231 234 220 193 164 195 218 191 190 192 180 180 204 184 218 227 200 185 240 249 269 35 244 237 249 251 239 229 228 230 225 223 226 212 201 210 210 203 203 198 239 284 284 273 261 249 242 237 234 233 231 230 229 229 228 225 222 219 215 214 214 215 217 217 219 222 225 227 227 227 226 221 213 208 207 209 211 212 214 215
155 232 192 194 211 218 233 240 193 131 146 200 211 196 194 199 191 190 205 207 222 231 217 214 233 248 262 254 230 226 225 228 236 232 230 234 231 224 222 219 216 219 216 212 211 218 248 279 282 272 262 254 246 241 239 237 234 233 231 229 229 228 225 222 218 216 216 218 218 218 220 224 226 227 227 226 224 219 213 209 208 211 213 214 216 218
107 244 211 215 218 219 235 238 192 150 177 201 204 197 196 198 191 190 209 221 220 223 237 235 231 246 260 256 238 222 219 222 241 240 230 233 236 229 220 220 226 227 220 216 221 237 262 279 277 267 256 251 248 246 244 241 237 235 233 231 230 229 228 224 220 218 217 218 220 220 222 224 225 227 227 225 223 218 214 211 210 212 215 217 218 221
153 224 213 221 227 229 240 238 200 178 198 202 199 198 194 191 192 198 214 223 220 214 236 246 238 234 248 254 246 222 201 206 223 230 229 232 237 235 225 221 225 229 226 224 236 254 270 279 277 267 253 246 248 251 251 246 239 234 232 231 229 229 229 227 223 219 217 218 221 222 222 223 224 225 225 224 221 218 215 213 212 214 216 218 221 223
175 220 215 215 226 230 236 238 218 199 211 215 203 198 193 192 196 204 215 223 223 224 235 247 249 244 242 250 253 225 200 209 218 223 225 227 230 233 231 225 225 228 229 235 250 265 275 279 277 267 254 249 252 257 259 254 245 236 231 229 228 228 228 226 224 220 218 219 221 222 222 223 224 224 224 222 220 219 218 215 214 216 218 220 223 224
185 220 223 214 231 238 237 244 238 217 216 226 219 200 197 203 206 210 217 222 223 230 236 239 249 256 249 246 245 208 199 207 213 214 221 228 232 235 235 231 228 228 231 240 253 266 276 277 271 262 256 259 263 262 263 259 249 240 233 230 228 227 227 226 224 221 219 220 222 222 223 223 224 223 222 221 220 220 220 218 218 218 220 223 225 226
187 227 238 192 234 244 238 246 247 237 229 240 243 226 214 214 215 213 215 218 217 223 231 236 245 255 252 226 179 187 190 197 208 214 222 231 235 237 237 235 232 231 235 242 251 263 271 268 262 262 265 269 269 262 258 255 249 241 235 231 228 227 226 225 224 222 221 221 223 224 224 224 223 222 221 221 221 220 221 222 221 221 222 224 227 229
177 207 223 207 226 240 238 242 248 250 249 245 240 233 228 223 220 219 222 226 224 219 223 229 234 245 246 192 162 198 186 188 209 216 223 231 234 236 238 236 236 237 241 246 255 263 264 257 256 264 269 270 269 263 256 250 249 246 239 233 229 227 225 225 224 223 222 222 224 226 226 225 223 221 220 221 222 223 224 224 224 225 225 227 229 230
191 201 212 212 222 238 239 243 251 245 236 234 229 231 235 232 223 222 226 230 228 221 228 237 243 250 250 203 179 210 200 205 217 223 230 235 236 237 238 238 239 243 247 251 256 258 253 250 255 260 262 264 263 258 248 242 244 245 239 233 229 226 225 225 224 223 222 222 225 227 227 226 223 221 221 222 224 227 227 227 227 228 229 230 230 232
194 205 208 210 224 237 237 243 246 232 230 246 251 238 239 239 233 231 235 239 236 228 232 242 250 253 249 224 213 220 218 223 227 230 235 239 240 239 240 242 245 248 251 252 251 248 245 248 252 253 254 259 257 249 241 235 233 231 228 226 225 224 224 224 224 224 222 222 224 226 227 225 223 222 223 225 228 231 231 231 231 231 232 233 234 235
192 202 208 214 217 221 219 222 233 243 262 294 278 254 237 238 234 233 243 247 239 230 228 233 241 247 247 238 234 233 235 241 245 243 240 238 239 241 243 248 250 250 250 249 245 244 246 246 247 248 251 253 250 244 238 231 226 223 221 221 222 222 222 223 223 224 223 223 223 225 226 226 225 225 227 229 232 233 234 234 235 235 237 238 239 240
200 203 211 217 207 210 227 229 242 275 293 270 252 239 203 196 198 200 230 245 238 229 225 228 239 246 247 244 242 238 242 260 266 257 248 240 239 242 245 250 252 250 247 245 243 243 243 241 241 244 246 245 241 237 230 222 217 213 211 213 215 215 217 218 220 222 222 223 223 224 226 227 228 229 230 232 234 236 237 238 239 240 241 242 244 244
204 204 203 213 208 204 228 240 243 250 251 245 245 237 189 195 201 183 212 247 249 235 225 226 239 246 247 248 238 221 220 247 264 261 253 245 242 244 245 246 247 245 241 238 235 234 232 233 236 238 238 236 229 222 214 208 205 202 202 204 205 206 208 211 213 216 218 219 221 223 225 227 229 231 233 235 238 240 241 242 243 244 245 247 248 248
208 210 208 219 218 201 221 237 232 234 242 241 247 252 186 178 166 119 173 245 254 245 227 218 233 242 243 240 222 193 192 233 250 256 253 248 247 244 242 242 241 240 236 230 227 228 230 230 231 229 227 222 212 204 197 193 194 194 193 194 195 197 201 203 205 209 212 216 220 223 226 228 230 233 235 237 238 239 241 241 242 244 246 248 250 251
208 211 214 223 224 219 227 235 232 241 249 233 242 262 185 161 138 115 223 244 249 229 200 186 201 225 233 233 219 187 193 224 239 257 259 251 249 244 239 239 239 236 232 225 223 227 228 225 222 220 214 204 193 187 183 181 182 184 184 185 187 191 194 196 200 203 207 212 216 219 222 224 226 228 229 231 231 231 231 232 234 238 241 244 248 251
206 208 212 217 225 227 228 237 248 251 236 228 222 189 161 143 133 175 233 231 180 172 180 184 198 217 226 226 213 198 220 228 234 253 265 249 242 239 231 230 231 230 228 225 226 226 220 212 209 206 197 186 179 177 176 176 178 179 180 182 185 186 185 185 188 191 195 200 203 206 210 212 214 216 216 216 217 216 218 221 225 229 234 237 241 244
198 205 212 214 223 227 227 238 249 246 225 199 171 161 153 148 197 230 222 177 170 188 193 196 206 218 225 224 215 214 226 232 235 244 251 243 238 233 221 218 220 221 222 223 222 217 205 197 192 187 181 178 178 178 179 180 181 181 182 184 182 175 171 172 177 181 185 188 191 193 195 197 199 200 201 202 204 205 208 212 216 220 224 227 230 234
185 187 205 207 211 220 233 232 230 249 222 156 140 142 176 199 232 221 184 183 200 211 211 208 214 223 227 227 226 224 229 234 236 237 238 236 235 227 216 211 210 213 217 216 210 201 193 188 184 181 182 182 182 184 186 187 188 188 187 181 170 164 166 170 173 175 177 179 181 183 184 186 188 191 194 197 199 202 205 209 212 216 219 222 227 231
192 193 203 206 202 205 225 225 219 262 188 162 157 178 213 207 215 53 175 210 222 220 217 218 224 230 231 234 237 232 229 231 232 231 228 225 224 220 213 207 206 209 211 206 198 191 186 185 185 184 185 186 187 190 191 191 190 186 177 169 165 167 171 172 172 174 175 176 179 180 182 183 186 189 193 196 200 203 206 209 213 216 219 223 227 231
210 201 188 205 210 210 226 223 208 294 183 183 192 223 218 213 229 259 254 239 239 231 227 227 234 241 241 242 242 236 231 229 228 226 222 219 219 218 215 212 210 208 201 193 188 186 185 187 190 189 188 188 189 188 184 179 176 173 170 169 171 174 175 175 175 176 176 177 179 181 183 185 188 192 195 198 202 206 209 212 215 218 222 225 228 233
225 204 127 160 248 262 266 217 188 211 207 202 211 226 228 226 238 248 257 268 264 254 251 246 257 274 266 249 241 238 237 232 224 219 217 216 217 216 214 211 203 194 188 184 184 186 187 189 192 194 192 188 182 177 173 168 166 170 175 176 176 176 176 176 177 176 176 178 180 181 184 187 189 191 193 196 199 202 204 208 211 214 219 224 229 235
243 204 168 142 259 251 242 212 199 221 230 219 221 228 234 239 241 243 247 250 255 277 278 261 273 291 284 265 256 252 245 233 221 216 212 212 213 212 207 200 189 181 181 183 185 188 190 191 193 192 190 184 176 171 170 169 167 170 177 178 177 176 175 174 175 175 176 177 178 179 181 182 184 186 188 189 192 194 197 201 206 212 218 223 228 235
214 191 173 193 231 229 242 253 260 280 269 247 238 238 239 241 243 245 245 242 246 266 282 278 278 291 294 285 271 259 249 231 218 214 210 208 209 205 195 186 180 178 181 186 188 190 190 190 188 184 182 180 175 171 172 174 172 172 175 176 173 171 170 169 169 171 172 172 173 174 175 176 178 180 182 184 189 192 196 201 205 209 213 217 223 229
160 166 171 197 211 232 265 261 264 321 304 265 247 242 241 241 244 249 249 245 247 256 267 279 287 294 300 294 277 262 249 230 216 213 211 206 200 192 184 180 180 182 183 184 185 185 183 182 180 177 176 176 174 172 173 173 173 171 170 169 167 166 167 167 166 167 168 169 170 171 172 174 176 178 181 185 188 191 195 199 203 206 209 214 220 227
153 177 186 187 192 219 246 237 210 214 273 257 243 242 246 247 246 245 245 244 246 250 257 269 281 285 286 286 279 268 251 227 213 211 210 203 191 183 181 181 182 181 178 177 177 175 174 176 175 173 171 171 171 171 171 169 168 166 164 164 164 165 167 168 167 168 169 170 171 172 174 176 178 181 184 186 189 193 198 203 208 212 217 224 233 242
191 187 183 193 213 232 241 232 208 207 239 256 252 251 255 256 251 247 245 244 241 240 250 266 274 273 270 270 267 259 243 225 209 201 199 195 187 184 185 184 182 179 175 173 173 170 169 170 170 167 167 168 168 169 169 167 165 164 164 164 164 165 168 171 172 172 172 173 175 177 178 181 182 185 189 191 195 203 209 214 221 226 232 241 250 257